Regional Weather Roundup
Issued by NWS

Home | Current Version | Previous Version | Text Only | Print | Product List | Glossary Off
Versions: 1 2 3 4 5 6 7 8 9 10 11 12 13 14 15 16 17 18 19 20 21 22 23 24 25 26 27 28 29 30 31 32 33 34 35 36 37 38 39 40 41 42 43 44 45 46 47 48 49 50

000
ASUS45 KBOU 270707
RWRCO

WEATHER ROUNDUP FOR COLORADO
NATIONAL WEATHER SERVICE DENVER/BOULDER CO
100 AM MDT WED JUL 27 2016

NOTE: "FAIR" INDICATES FEW OR NO CLOUDS BELOW 12000 FEET WITH NO
SIGNIFICANT WEATHER AND/OR OBSTRUCTIONS TO VISIBILITY.

COZ001>005-013-030-031-270800-
...NORTHWEST COLORADO...

CITY           SKY/WX    TMP DP  RH WIND       PRES   REMARKS
CRAIG          FAIR      56  44  64 E6        30.25F
HAYDEN         FAIR      55  37  50 E12       30.28S
MEEKER         FAIR      54  43  66 NE9       30.27S
MOUNT WERNER   NOT AVBL
STEAMBOAT SPGS NOT AVBL
WALDEN         FAIR      52  36  54 S6        30.42F
$$

COZ006>008-011-270800-
...WEST CENTRAL VALLEYS...

CITY           SKY/WX    TMP DP  RH WIND       PRES   REMARKS
GRAND JUNCTION FAIR      73  42  32 E3        30.13R
MONTROSE       FAIR      65  43  44 S8        30.23S
EAGLE          FAIR      57  41  54 SE3       30.34S
RIFLE          FAIR      65  41  41 S3        30.22R
DELTA          FAIR      72  38  28 NE8       30.18S
NUCLA          FAIR      70  39  32 E10       30.26R
$$

COZ017>023-064>068-270800-
...SOUTHWEST COLORADO...

CITY           SKY/WX    TMP DP  RH WIND       PRES   REMARKS
DURANGO        FAIR      59  50  72 CALM      30.30F
CORTEZ         FAIR      60  45  57 CALM      30.23S
PAGOSA SPRINGS FAIR      61  44  53 CALM      30.38F
TELLURIDE      FAIR      58  40  52 SE3       30.50S
WOLF CREEK PAS FAIR      48  34  57 NE9       30.71F
$$

COZ009-010-012-014-032>034-037-058>063-270800-
...CENTRAL COLORADO...

CITY           SKY/WX    TMP DP  RH WIND       PRES   REMARKS
ASPEN          FAIR      56  39  53 SW8       30.38F
BUENA VISTA    FAIR      56  36  46 NW14      30.41F
COPPER MTN     FAIR      55  25  30 SW3       30.71F
BERTHOUD PASS  FAIR      45  32  61 N17       30.74S THUNDER
COTTONWOOD PAS FAIR      61  32  33 W12G17    30.54F
GUNNISON       FAIR      55  39  54 N6        30.43S
KREMMLING      FAIR      46  41  81 CALM      30.41S
LEADVILLE      FAIR      42  32  67 NE5       30.55F
MONARCH PASS   FAIR      50  32  50 MISG      30.80F
SALIDA         FAIR      59  41  51 W9        30.45F
SUNLIGHT       FAIR      59  32  36 MISG      30.64S
WILKERSON PASS FAIR      52  30  43 W7        30.67S
$$

COZ069>075-270800-
...SAN LUIS VALLEY/SANGRE DE CRISTO MOUNTAINS...

CITY           SKY/WX    TMP DP  RH WIND       PRES   REMARKS
ALAMOSA        FAIR      58  46  64 CALM      30.36F
LA VETA PASS   FAIR      55  37  50 S3        30.56F
SAGUACHE       FAIR      59  41  51 NW15      30.39F
$$

COZ035-036-038>040-270800-
...NORTHERN COLORADO FRONT RANGE...

CITY           SKY/WX    TMP DP  RH WIND       PRES   REMARKS
DENVER INTL AP FAIR      69  40  34 W7        30.15R
DMNS CITY PARK   N/A     68  45  43 S2        30.14S
AURORA         PTCLDY    66  43  42 S8        30.17S
FRONT RANGE AP NOT AVBL
ERIE MUNI ARPT FAIR      60  43  54 CALM      30.14S
BOULDER MUN AP FAIR      68  41  37 CALM      30.16R
CENTENNIAL     FAIR      66  41  40 S6        30.18F
BROOMFIELD     FAIR      73  36  25 N7        30.18R
LONGMONT       FAIR      64  47  55 CALM      30.15R
$$

COZ041-046-047-076>085-087-088-270800-
...PIKES PEAK/PALMER DIVIDE AND SOUTHERN FOOTHILLS...

CITY           SKY/WX    TMP DP  RH WIND       PRES   REMARKS
COLO. SPRINGS  FAIR      64  54  69 NW7       30.28R
A. F. ACADEMY  MOCLDY    63  49  59 S6        30.30R
SCHRIEVER AFB  NOT AVBL
ELLICOTT       FAIR     N/A N/A N/A SE20G25   30.24S
FALCON         FAIR      61  57  88 CALM      30.32R
FORT CARSON    FAIR      67  53  59 VRB3      30.23S
LIMON          NOT AVBL
MONUMENT HILL  FAIR      61  54  77 S10G21    30.32S
TRINIDAD       NOT AVBL
$$

COZ042>045-048>051-090-091-270800-
...NORTHEAST COLORADO...

CITY           SKY/WX    TMP DP  RH WIND       PRES   REMARKS
GREELEY ARPT   FAIR      63  54  72 CALM      30.12F
AKRON          FAIR      66  54  65 S7        30.12S
BURLINGTON     FAIR      69  59  70 S15G24    30.10F
WRAY           FAIR      70  55  60 SW5       30.09R
STERLING       FAIR      66  54  63 CALM      30.08F
HOLYOKE        FAIR      66  61  82 CALM      30.10S
FORT MORGAN    FAIR      61  55  80 N10       30.12R
$$

COZ086-089-092>099-270800-
...SOUTHEAST COLORADO...

CITY           SKY/WX    TMP DP  RH WIND       PRES   REMARKS
PUEBLO         FAIR      74  58  57 E9        30.14S
LA JUNTA       FAIR      71  61  70 E21G31    30.12F
LAMAR          FAIR      69  62  78 E17G38    30.12S
SPRINGFIELD      N/A     69  62  78 N10       30.16R
$$



USA.gov is the U.S. government's official web portal to all federal, state and local government web resources and services.